Clarksdale Fletcher Field Air, MS

12:39 PM CST on November 18, 2019 (GMT -0600)
Fletcher

Weather History for KCKM - September, 2019

Change the Weather History Date:

Friday, September 6, 2019

  Actual Average (KUOX) Record (KUOX)
Temperature  
Mean Temperature 80 °F -  
Max Temperature 95 °F 87 °F 102 °F (1947)
Min Temperature 66 °F 63 °F 50 °F (1984)
Cooling Degree Days 16    
Growing Degree Days 30 (Base 50)    
Moisture  
Dew Point 72 °F    
Average Humidity 78    
Maximum Humidity 100    
Minimum Humidity 47    
Precipitation  
Precipitation 0.00 in - - ()
Sea Level Pressure  
Sea Level Pressure 30.01 in    
Wind  
Wind Speed 1 mph ()    
Max Wind Speed 10 mph    
Max Gust Speed 15 mph    
Visibility 9.7 miles    
Events      
Averages and records for this station are not official NWS values.
T = Trace of Precipitation, MM = Missing Value Source: Averaged Metar Reports

Daily Weather History Graph

Daily Weather History Graph

Search for Another Location

Airport or City:

Astronomy

Sep. 06, 2019 Rise Set
Actual Time 6:38 AM CDT 7:21 PM CDT
Civil Twilight 6:13 AM CDT 7:46 PM CDT
Nautical Twilight 5:43 AM CDT 8:16 PM CDT
Astronomical Twilight 5:12 AM CDT 8:47 PM CDT
Moon 2:27 PM CDT (9/6) No Moon Set
Length of Visible Light 13h 33m
Length of Day
12h 42m
First Quarter, 56% of the Moon is Illuminated
Sep 6
First Quarter
Sep 13
Full
Sep 21
Last Quarter
Sep 28
New
Oct 5
First Quarter

Hourly Weather History & Observations

Time (CDT) Temp. Heat Index Dew Point Humidity Pressure Visibility Wind Dir Wind Speed Gust Speed Precip Events Conditions
12:15 AM 71.6 °F - 71.6 °F 100% 30.02 in 10.0 mi Calm Calm - N/A   Unknown
12:35 AM 71.6 °F - 71.6 °F 100% 30.02 in 10.0 mi Calm Calm - N/A   Unknown
12:55 AM 71.6 °F - 71.6 °F 100% 30.02 in 10.0 mi Calm Calm - N/A   Unknown
1:15 AM 71.6 °F - 71.6 °F 100% 30.02 in 10.0 mi Calm Calm - N/A   Unknown
1:35 AM 71.6 °F - 71.6 °F 100% 30.02 in 10.0 mi Calm Calm - N/A   Unknown
1:55 AM 69.8 °F - 69.8 °F 100% 30.02 in 10.0 mi Calm Calm - N/A   Unknown
2:15 AM 69.8 °F - 69.8 °F 100% 30.02 in 10.0 mi Calm Calm - N/A   Unknown
2:35 AM 69.8 °F - 69.8 °F 100% 30.01 in 10.0 mi Calm Calm - N/A   Unknown
3:35 AM 68.0 °F - 68.0 °F 100% 30.01 in 9.0 mi Calm Calm - N/A   Unknown
3:55 AM 68.0 °F - 68.0 °F 100% 30.01 in 7.0 mi Calm Calm - N/A   Unknown
4:15 AM 68.0 °F - 68.0 °F 100% 30.02 in 7.0 mi Calm Calm - N/A   Unknown
4:35 AM 68.0 °F - 68.0 °F 100% 30.02 in 9.0 mi Calm Calm - N/A   Unknown
4:55 AM 68.0 °F - 68.0 °F 100% 30.02 in 7.0 mi Calm Calm - N/A   Unknown
5:35 AM 68.0 °F - 68.0 °F 100% 30.04 in 10.0 mi Calm Calm - N/A   Unknown
5:55 AM 68.0 °F - 68.0 °F 100% 30.04 in 10.0 mi Calm Calm - N/A   Unknown
6:15 AM 68.0 °F - 68.0 °F 100% 30.04 in 10.0 mi Calm Calm - N/A   Unknown
6:35 AM 68.0 °F - 68.0 °F 100% 30.05 in 9.0 mi Calm Calm - N/A   Unknown
6:55 AM 66.2 °F - 66.2 °F 100% 30.05 in 6.0 mi Calm Calm - N/A   Mist
7:15 AM 68.0 °F - 68.0 °F 100% 30.06 in 7.0 mi Calm Calm - N/A   Unknown
7:35 AM 69.8 °F - 69.8 °F 100% 30.07 in 7.0 mi Calm Calm - N/A   Unknown
7:55 AM 71.6 °F - 71.6 °F 100% 30.07 in 9.0 mi Calm Calm - N/A   Unknown
8:15 AM 73.4 °F - 73.4 °F 100% 30.07 in 10.0 mi Calm Calm - N/A   Unknown
8:35 AM 77.0 °F - 69.8 °F 78% 30.07 in 10.0 mi Calm Calm - N/A   Unknown
8:55 AM 78.8 °F - 71.6 °F 78% 30.07 in 10.0 mi Calm Calm - N/A   Unknown
9:15 AM 80.6 °F 83.2 °F 68.0 °F 65% 30.07 in 10.0 mi Calm Calm - N/A   Unknown
9:35 AM 82.4 °F 86.3 °F 69.8 °F 66% 30.07 in 10.0 mi Calm Calm - N/A   Unknown
9:55 AM 82.4 °F 85.4 °F 68.0 °F 62% 30.07 in 10.0 mi Calm Calm - N/A   Unknown
10:15 AM 84.2 °F 87.3 °F 68.0 °F 58% 30.07 in 10.0 mi Calm Calm - N/A   Unknown
10:35 AM 84.2 °F 88.4 °F 69.8 °F 62% 30.07 in 10.0 mi Calm Calm - N/A   Unknown
10:55 AM 86.0 °F 90.4 °F 69.8 °F 58% 30.06 in 10.0 mi Calm Calm - N/A   Unknown
11:15 AM 87.8 °F 93.8 °F 71.6 °F 58% 30.06 in 10.0 mi Calm Calm - N/A   Unknown
11:35 AM 87.8 °F 95.6 °F 73.4 °F 62% 30.05 in 10.0 mi Calm Calm - N/A   Unknown
11:55 AM 89.6 °F 98.2 °F 73.4 °F 59% 30.04 in 10.0 mi Calm Calm - N/A   Unknown
12:15 PM 89.6 °F 98.2 °F 73.4 °F 59% 30.04 in 10.0 mi Variable 5.8 mph - N/A   Unknown
12:35 PM 91.4 °F 102.5 °F 75.2 °F 59% 30.03 in 10.0 mi WNW 5.8 mph - N/A   Unknown
12:55 PM 91.4 °F 102.5 °F 75.2 °F 59% 30.03 in 10.0 mi West 8.1 mph - N/A   Unknown
1:15 PM 93.2 °F 102.4 °F 73.4 °F 52% 30.02 in 10.0 mi Calm Calm - N/A   Unknown
1:35 PM 93.2 °F 102.4 °F 73.4 °F 52% 30.01 in 10.0 mi WNW 6.9 mph - N/A   Unknown
1:55 PM 93.2 °F 102.4 °F 73.4 °F 52% 30.00 in 10.0 mi West 6.9 mph 15.0 mph N/A   Unknown
2:15 PM 93.2 °F 102.4 °F 73.4 °F 52% 30.00 in 10.0 mi West 3.5 mph - N/A   Unknown
2:35 PM 93.2 °F 102.4 °F 73.4 °F 52% 29.99 in 10.0 mi WNW 8.1 mph - N/A   Unknown
2:55 PM 93.2 °F 102.4 °F 73.4 °F 52% 29.98 in 10.0 mi West 6.9 mph - N/A   Unknown
3:15 PM 95.0 °F 104.5 °F 73.4 °F 49% 29.98 in 10.0 mi West 6.9 mph - N/A   Unknown
3:35 PM 95.0 °F 103.2 °F 71.6 °F 47% 29.97 in 10.0 mi WNW 10.4 mph - N/A   Unknown
3:55 PM 95.0 °F 103.2 °F 71.6 °F 47% 29.96 in 10.0 mi West 8.1 mph - N/A   Unknown
4:15 PM 95.0 °F 104.5 °F 73.4 °F 49% 29.96 in 10.0 mi WSW 10.4 mph - N/A   Unknown
4:35 PM 95.0 °F 104.5 °F 73.4 °F 49% 29.96 in 10.0 mi West 9.2 mph - N/A   Unknown
5:15 PM 93.2 °F 102.4 °F 73.4 °F 52% 29.96 in 10.0 mi West 6.9 mph - N/A   Unknown
5:35 PM 93.2 °F 102.4 °F 73.4 °F 52% 29.96 in 10.0 mi West 6.9 mph - N/A   Unknown
5:55 PM 93.2 °F 102.4 °F 73.4 °F 52% 29.96 in 10.0 mi Calm Calm - N/A   Unknown
6:35 PM 89.6 °F 99.8 °F 75.2 °F 62% 29.96 in 10.0 mi Calm Calm - N/A   Unknown
6:55 PM 87.8 °F 97.6 °F 75.2 °F 66% 29.96 in 10.0 mi Calm Calm - N/A   Unknown
7:15 PM 86.0 °F 95.1 °F 75.2 °F 70% 29.96 in 10.0 mi Calm Calm - N/A   Unknown
7:35 PM 84.2 °F 94.1 °F 77.0 °F 79% 29.96 in 10.0 mi Calm Calm - N/A   Unknown
7:55 PM 84.2 °F 92.3 °F 75.2 °F 74% 29.96 in 10.0 mi Calm Calm - N/A   Unknown
8:15 PM 84.2 °F 94.1 °F 77.0 °F 79% 29.96 in 10.0 mi Calm Calm - N/A   Unknown
8:35 PM 80.6 °F 88.1 °F 78.8 °F 94% 29.96 in 10.0 mi Calm Calm - N/A   Unknown
8:55 PM 82.4 °F 90.9 °F 77.0 °F 84% 29.96 in 10.0 mi Calm Calm - N/A   Unknown
9:15 PM 80.6 °F 87.1 °F 77.0 °F 89% 29.97 in 10.0 mi Calm Calm - N/A   Unknown
9:35 PM 80.6 °F 87.1 °F 77.0 °F 89% 29.97 in 10.0 mi Calm Calm - N/A   Unknown
9:55 PM 78.8 °F - 77.0 °F 94% 29.97 in 10.0 mi Calm Calm - N/A   Unknown
10:15 PM 78.8 °F - 77.0 °F 94% 29.97 in 10.0 mi Calm Calm - N/A   Unknown
10:35 PM 78.8 °F - 77.0 °F 94% 29.97 in 10.0 mi Calm Calm - N/A   Unknown
10:55 PM 80.6 °F 87.1 °F 77.0 °F 89% 29.97 in 10.0 mi Calm Calm - N/A   Unknown
11:15 PM 78.8 °F - 77.0 °F 94% 29.97 in 10.0 mi Calm Calm - N/A   Unknown
11:35 PM 78.8 °F - 77.0 °F 94% 29.97 in 10.0 mi Calm Calm - N/A   Unknown